sat.trackr.live / text

‹ back to catalog

STARLINK-4119

NORAD 53026 · 2022-076AS

PAYLOAD ACTIVE UNKNOWN

§ Identity

Operator
Country
US
Launch date
2022-07-07
Launch site
AFETR
Launch vehicle
Mass (kg)
RCS (m²)

Purposes: comms

External: N2YO · Heavens-Above · Gunter

§ Orbital elements

Epoch: 2026-09-20T00:42:42.267168Z

Period
94.01 min
Inclination
53.1568°
Eccentricity
0.0001449
Mean motion
15.31695610 rev/d
Perigee alt
469.8 km
Apogee alt
471.7 km
Semi-major
6,848.9 km
B*
1.3263e-5
RAAN
276.4205°
Arg perigee
89.4614°
Mean anomaly
270.6554°
Rev number
23,253

§ Raw data

STARLINK-41191 53026U 22076AS  26263.02965587  .00000046  00000+0  13263-4 0  99922 53026  53.1568 276.4205 0001449  89.4614 270.6554 15.31695610232533

JSON: /api/v1/satellites/53026 · /tle

For live sub-satellite position, see the globe view (requires WebGL).

§ Visibility from observer

Set your observer location to see the next 7 days of passes ≥ 10°. The values pass through the URL so the page stays shareable.

No JS? Fill the form by hand. The geolocation button needs JavaScript.